Weather Roundup
Issued by NWS

Home | Current Version | Previous Version | Text Only | Print | Product List | Glossary On
Versions: 1 2 3 4 5 6 7 8 9 10 11 12 13 14 15 16 17 18 19 20 21 22 23 24 25 26 27 28 29 30 31 32 33 34 35 36 37 38 39 40 41 42 43 44 45 46 47 48 49 50
000
NZUS93 KARX 220910
HRRWXR

CURRENT HOURLY OBSERVATIONS ACROSS
MUCH OF THE UPPER MISSISSIPPI VALLEY
NATIONAL WEATHER SERVICE LA CROSSE WI
400 AM CDT TUE JUL 22 2014


...SOUTHEAST MINNESOTA...


CITY           SKY/WX    TMP DP  RH WIND       PRES   REMARKS
ROCHESTER      MOCLDY    78  73  84 S16       29.88S
ROCHESTER/MAYO FAIR      78  72  82 S12G17    29.86F
WINONA         MOCLDY    77  70  78 S5        29.86F
AUSTIN         PTCLDY    77  73  88 S8        29.87F FOG
ALBERT LEA     CLEAR     79  75  89 S7        29.86F
DODGE CENTER   MOCLDY    77  73  88 S15       29.86S
PRESTON        MOCLDY    74  74  99 S9        29.91R
OWATONNA       PTCLDY    79  73  83 SW3       29.84S
FARIBAULT      PTCLDY    82  73  74 S7        29.83S
$$

...ELSEWHERE IN MINNESOTA...


CITY           SKY/WX    TMP DP  RH WIND       PRES   REMARKS
MINNEAPOLIS    MOCLDY    82  76  81 SW7       29.80S
INTNL FALLS    HVY RAIN  65  64  97 N12       29.69S
DULUTH         CLOUDY    68  64  87 SW9       29.72F
RED WING       MOCLDY    79  73  83 S5        29.81S
REDWOOD FALLS  CLEAR     72  66  81 NW8       29.84R
MANKATO        CLEAR     79  73  83 SW8       29.83S
WORTHINGTON    CLEAR     77  73  88 SW6       29.90R
FAIRMONT       CLEAR     77  72  83 SW5       29.85S
$$

...SOUTHWEST WISCONSIN...


CITY           SKY/WX    TMP DP  RH WIND       PRES   REMARKS
LA CROSSE      CLOUDY    79  69  71 S9G20     29.88F
PRAIRIE DU CHI CLOUDY    78  65  63 S9        29.93F
BOSCOBEL       CLOUDY    77  68  73 S7        29.93F
LONE ROCK      MOCLDY    79  69  71 CALM      29.96F
PLATTEVILLE    PTCLDY    73  69  87 S9        29.99F
FORT MC COY    CLOUDY    76  66  71 S9        29.90F
CAMP DOUGLAS   CLOUDY    75  71  86 S9        29.91F
VIROQUA        FAIR      74  68  80 S10       29.94F
WIS DELLS      PTCLDY    74  66  77 S13       29.95F
$$

...ELSEWHERE IN WISCONSIN...


CITY           SKY/WX    TMP DP  RH WIND       PRES   REMARKS
MILWAUKEE      CLEAR     71  65  81 SW7       30.01F
MADISON        CLEAR     75  68  78 S12       29.99S
GREEN BAY      PTCLDY    71  67  87 S8        29.95F
EAU CLAIRE     CLOUDY    78  72  81 S10       29.82F
BLACK RVR FLS  FAIR      77  67  71 SW6       29.87F
MEDFORD        CLOUDY    73  68  84 S12       29.89S
WAUSAU         CLOUDY    73  68  84 S14       29.88F
WIS RAPIDS     CLOUDY    74  68  81 S6        29.92F
MARSHFIELD     CLOUDY    73  68  84 S15G24    29.87F
RICE LAKE      CLOUDY    77  70  79 S10       29.82F
$$

...NORTHEAST IOWA...


CITY           SKY/WX    TMP DP  RH WIND       PRES   REMARKS
WATERLOO       CLOUDY    76  70  82 S10       29.89F
DUBUQUE        MOCLDY    72  68  87 S14       29.98F
DECORAH        CLOUDY    75  70  83 S13       29.89F
MASON CITY     PTCLDY    76  75  97 S8        29.89S
CHARLES CITY   CLOUDY    77  73  88 S14       29.90F
OELWEIN        CLOUDY    75  70  83 S17G24    29.94F
$$

...ELSEWHERE IN IOWA...


CITY           SKY/WX    TMP DP  RH WIND       PRES   REMARKS
DES MOINES     CLOUDY    81  74  79 S13       29.90S
IOWA CITY      PTCLDY    74  68  81 S10       29.98F
FORT DODGE     PTCLDY    77  73  88 S9        29.87S
MARSHALLTOWN   CLOUDY    77  73  87 S10       29.90F
CEDAR RAPIDS   PTCLDY    74  67  78 S12       29.95F
$$

...NORTHERN ILLINOIS...


CITY           SKY/WX    TMP DP  RH WIND       PRES   REMARKS
CHICAGO-OHARE  CLEAR     71  62  73 S7        30.05S
DUPAGE         CLEAR     68  64  87 S7        30.05S
CHICAGO-MIDWAY CLEAR     73  65  75 S7        30.05F
MOLINE         CLEAR     74  66  76 S9        30.00S
ROCKFORD       PTCLDY    70  65  84 S8        30.03F
STERLING       CLEAR     70  66  88 S3        30.03S
PEORIA         CLEAR     72  65  78 S8        30.06S
$$

NOTE: "FAIR" INDICATES FEW OR NO CLOUDS BELOW 12,000 FEET WITH NO
SIGNIFICANT WEATHER AND/OR OBSTRUCTIONS TO VISIBILITY. WIND
SPEEDS ARE IN MILES-PER-HOUR.



USA.gov is the U.S. government's official web portal to all federal, state and local government web resources and services.